Weather History for KCPC - April, 2014

Change the Weather History Date:

Saturday, April 19, 2014

  Actual Average (KLBT) Record (KLBT)
Temperature  
Mean Temperature 52 °F 62 °F  
Max Temperature 55 °F 75 °F 90 °F (2002)
Min Temperature 49 °F 50 °F 30 °F (2001)
Degree Days  
Heating Degree Days 12 4  
Month to date heating degree days 115  
Since 1 July heating degree days 2691  
Cooling Degree Days 0 2  
Month to date cooling degree days 30  
Year to date cooling degree days 43  
Growing Degree Days 2 (Base 50)    
Moisture  
Dew Point 51 °F    
Average Humidity 92    
Maximum Humidity 95    
Minimum Humidity 85    
Precipitation  
Precipitation 0.34 in 0.10 in 0.87 in (2014)
Month to date precipitation 1.85  
Year to date precipitation 11.05  
Sea Level Pressure  
Sea Level Pressure 30.06 in    
Wind  
Wind Speed 10 mph (NNE)    
Max Wind Speed 15 mph    
Max Gust Speed 24 mph    
Visibility 8 miles    
Events Rain    
T = Trace of Precipitation, MM = Missing Value Source: NWS Daily Summary

Daily Weather History Graph

Daily Weather History Graph

Search for Another Location

Airport or City:

Trip Planner

Search our weather history database for the weather conditions in past years. The results will help you decide how hot, cold, wet, or windy it might be!

Date:

Astronomy

Apr. 19, 2014 Rise Set
Actual Time 6:38 AM EDT 7:49 PM EDT
Civil Twilight 6:12 AM EDT 8:15 PM EDT
Nautical Twilight 5:41 AM EDT 8:46 PM EDT
Astronomical Twilight 5:09 AM EDT 9:19 PM EDT
Moon No Moon Rise 10:01 AM EDT (4/19)
Length of Visible Light 14h 03m
Length of Day
13h 10m
Waning Gibbous, 79% of the Moon is Illuminated
Apr 19
Waning Gibbous
Apr 22
Last Quarter
Apr 29
New
May 6
First Quarter
May 14
Full

Hourly Weather History & Observations

Time (EDT) Temp. Dew Point Humidity Pressure Visibility Wind Dir Wind Speed Gust Speed Precip Events Conditions
12:15 AM 54.0 °F 52.7 °F 95% 30.12 in 5.0 mi NE 11.5 mph 18.4 mph 0.05 in Rain Rain
12:35 AM 53.8 °F 52.3 °F 95% 30.13 in 5.0 mi NE 13.8 mph 20.7 mph 0.09 in Rain Light Rain
12:55 AM 53.6 °F 52.2 °F 95% 30.13 in 3.0 mi NE 8.1 mph - 0.18 in Rain Heavy Rain
1:15 AM 53.4 °F 51.8 °F 94% 30.12 in 7.0 mi NE 10.4 mph 18.4 mph 0.03 in Rain Light Rain
1:35 AM 52.9 °F 51.3 °F 94% 30.11 in 7.0 mi NE 11.5 mph 18.4 mph 0.04 in Rain Light Rain
1:55 AM 52.7 °F 50.9 °F 94% 30.09 in 10.0 mi NE 10.4 mph 18.4 mph 0.04 in   Overcast
2:15 AM 52.7 °F 50.9 °F 94% 30.07 in 10.0 mi NNE 9.2 mph 17.3 mph N/A   Light Drizzle
2:35 AM 52.7 °F 50.9 °F 94% 30.07 in 10.0 mi NE 11.5 mph 18.4 mph N/A   Light Drizzle
2:55 AM 52.7 °F 50.9 °F 94% 30.06 in 10.0 mi NNE 10.4 mph 17.3 mph N/A Rain Rain
3:15 AM 52.7 °F 51.1 °F 94% 30.04 in 10.0 mi NE 10.4 mph 17.3 mph N/A Rain Light Rain
3:35 AM 52.9 °F 51.3 °F 94% 30.03 in 10.0 mi NE 12.7 mph 19.6 mph 0.01 in Rain Light Rain
3:55 AM 53.1 °F 51.8 °F 95% 30.03 in 10.0 mi NE 9.2 mph 17.3 mph 0.01 in Rain Light Rain
4:15 AM 53.6 °F 51.8 °F 94% 30.02 in 10.0 mi NE 10.4 mph 21.9 mph N/A Rain Light Rain
4:35 AM 54.5 °F 52.7 °F 94% 30.02 in 10.0 mi NE 10.4 mph 17.3 mph N/A   Light Drizzle
4:55 AM 54.5 °F 52.2 °F 92% 30.01 in 10.0 mi NE 15.0 mph 20.7 mph N/A Rain Light Rain
5:15 AM 53.6 °F 51.8 °F 94% 30.01 in 10.0 mi NE 10.4 mph 16.1 mph N/A Rain Light Rain
5:35 AM 53.6 °F 51.8 °F 94% 30.01 in 10.0 mi NE 10.4 mph 18.4 mph 0.01 in Rain Light Rain
5:55 AM 53.6 °F 51.8 °F 94% 30.01 in 10.0 mi NNE 10.4 mph 17.3 mph 0.01 in Rain Rain
6:15 AM 53.6 °F 52.0 °F 94% 30.00 in 5.0 mi NNE 8.1 mph 16.1 mph 0.03 in Rain Light Rain
6:35 AM 53.6 °F 52.2 °F 95% 30.00 in 10.0 mi NE 11.5 mph 18.4 mph 0.03 in Rain Rain
6:55 AM 53.6 °F 52.0 °F 94% 30.00 in 10.0 mi NNE 8.1 mph 17.3 mph 0.04 in Rain Light Rain
7:15 AM 53.1 °F 51.8 °F 95% 30.00 in 10.0 mi NNE 8.1 mph 18.4 mph N/A   Drizzle
7:35 AM 53.2 °F 51.8 °F 95% 30.00 in 10.0 mi NE 10.4 mph 16.1 mph 0.01 in   Overcast
7:55 AM 53.2 °F 51.8 °F 95% 30.01 in 10.0 mi NNE 8.1 mph - 0.01 in   Overcast
8:15 AM 53.2 °F 51.4 °F 94% 30.01 in 10.0 mi NNE 9.2 mph - N/A   Overcast
8:35 AM 52.9 °F 51.1 °F 94% 30.03 in 10.0 mi NNE 5.8 mph - N/A   Overcast
8:55 AM 52.7 °F 50.5 °F 92% 30.05 in 10.0 mi NNE 8.1 mph - N/A Rain Rain
9:15 AM 52.2 °F 50.4 °F 94% 30.05 in 4.0 mi NE 6.9 mph - 0.03 in Rain Rain
9:35 AM 52.0 °F 50.5 °F 95% 30.06 in 7.0 mi NE 5.8 mph - 0.03 in   Light Drizzle
9:55 AM 52.2 °F 50.7 °F 95% 30.05 in 7.0 mi NNE 9.2 mph - 0.03 in   Overcast
10:15 AM 52.2 °F 50.7 °F 95% 30.06 in 10.0 mi NNE 5.8 mph - N/A   Overcast
10:35 AM 52.2 °F 50.5 °F 94% 30.07 in 5.0 mi NNE 6.9 mph - N/A   Overcast
10:55 AM 52.3 °F 50.7 °F 94% 30.07 in 5.0 mi NNE 9.2 mph - N/A   Overcast
11:15 AM 52.5 °F 50.9 °F 94% 30.07 in 4.0 mi NNE 8.1 mph - N/A   Overcast
11:35 AM 52.7 °F 50.9 °F 94% 30.06 in 4.0 mi NNE 9.2 mph - N/A   Overcast
11:55 AM 52.7 °F 50.9 °F 94% 30.06 in 10.0 mi NNE 8.1 mph - N/A   Overcast
12:15 PM 53.1 °F 50.5 °F 91% 30.06 in 10.0 mi NE 10.4 mph 21.9 mph N/A   Overcast
12:35 PM 52.9 °F 50.5 °F 92% 30.06 in 10.0 mi NNE 11.5 mph 16.1 mph N/A   Overcast
1:15 PM 53.4 °F 50.7 °F 91% 30.05 in 10.0 mi NE 11.5 mph 17.3 mph N/A   Overcast
1:35 PM 53.8 °F 50.9 °F 90% 30.04 in 10.0 mi NNE 8.1 mph 18.4 mph N/A   Overcast
1:55 PM 54.0 °F 51.4 °F 91% 30.04 in 5.0 mi NNE 10.4 mph 17.3 mph N/A   Overcast
2:15 PM 53.8 °F 51.4 °F 92% 30.04 in 5.0 mi NE 10.4 mph 17.3 mph N/A   Overcast
2:35 PM 53.6 °F 50.9 °F 91% 30.04 in 7.0 mi NE 10.4 mph 17.3 mph N/A   Overcast
2:55 PM 53.6 °F 51.1 °F 91% 30.05 in 4.0 mi NNE 10.4 mph 19.6 mph N/A   Overcast
3:15 PM 53.6 °F 51.3 °F 92% 30.05 in 4.0 mi NNE 13.8 mph 21.9 mph N/A Rain Light Rain
3:35 PM 53.8 °F 51.1 °F 91% 30.04 in 10.0 mi NNE 10.4 mph 20.7 mph N/A   Overcast
3:55 PM 54.3 °F 50.9 °F 88% 30.04 in 10.0 mi NE 11.5 mph 23.0 mph N/A   Overcast
4:15 PM 54.7 °F 50.9 °F 87% 30.04 in 10.0 mi NE 12.7 mph 20.7 mph N/A   Overcast
4:35 PM 54.9 °F 50.9 °F 86% 30.04 in 10.0 mi NNE 6.9 mph 20.7 mph N/A   Overcast
4:55 PM 55.2 °F 50.9 °F 85% 30.06 in 10.0 mi NNE 11.5 mph 16.1 mph N/A   Overcast
5:15 PM 55.4 °F 50.9 °F 85% 30.06 in 10.0 mi NE 9.2 mph - N/A   Overcast
5:35 PM 55.4 °F 50.9 °F 85% 30.06 in 10.0 mi NE 6.9 mph 10.4 mph N/A   Overcast
5:55 PM 54.9 °F 50.9 °F 86% 30.06 in 10.0 mi NNE 9.2 mph 16.1 mph N/A   Overcast
6:15 PM 54.5 °F 50.7 °F 87% 30.06 in 10.0 mi NNE 9.2 mph - N/A   Overcast
6:35 PM 54.1 °F 50.2 °F 86% 30.06 in 10.0 mi NNE 11.5 mph 17.3 mph N/A   Overcast
6:55 PM 53.6 °F 50.0 °F 88% 30.07 in 10.0 mi NE 10.4 mph 19.6 mph N/A   Overcast
7:15 PM 52.7 °F 50.0 °F 91% 30.08 in 4.0 mi North 6.9 mph - N/A Rain Rain
7:35 PM 51.8 °F 49.5 °F 92% 30.08 in 5.0 mi NNE 12.7 mph 20.7 mph N/A   Overcast
7:55 PM 51.8 °F 49.6 °F 92% 30.08 in 7.0 mi North 10.4 mph 18.4 mph N/A   Overcast
8:15 PM 51.1 °F 48.2 °F 90% 30.07 in 10.0 mi NNE 10.4 mph 24.2 mph N/A   Overcast
8:35 PM 50.9 °F 48.4 °F 91% 30.08 in 10.0 mi North 8.1 mph 17.3 mph N/A   Overcast
8:55 PM 50.2 °F 47.7 °F 91% 30.09 in 10.0 mi NNE 11.5 mph 16.1 mph N/A   Overcast
9:15 PM 50.0 °F 47.7 °F 92% 30.09 in 10.0 mi NNE 9.2 mph - N/A   Overcast
9:35 PM 50.0 °F 48.0 °F 93% 30.10 in 10.0 mi NNE 8.1 mph - N/A   Drizzle
9:55 PM 50.2 °F 48.6 °F 94% 30.10 in 5.0 mi NNE 8.1 mph - N/A   Drizzle
10:15 PM 50.4 °F 48.6 °F 94% 30.10 in 7.0 mi NNE 9.2 mph 17.3 mph 0.01 in Rain Rain
10:35 PM 50.2 °F 48.6 °F 94% 30.10 in 7.0 mi NNE 9.2 mph 17.3 mph 0.02 in Rain Light Rain
10:55 PM 50.5 °F 49.1 °F 95% 30.09 in 10.0 mi NNE 10.4 mph - 0.02 in   Overcast
11:15 PM 50.5 °F 48.7 °F 94% 30.09 in 10.0 mi NNE 9.2 mph 16.1 mph N/A   Overcast
11:35 PM 50.2 °F 48.2 °F 93% 30.10 in 10.0 mi NNE 9.2 mph 17.3 mph N/A Rain Light Rain
11:55 PM 49.8 °F 47.7 °F 92% 30.10 in 7.0 mi NNE 8.1 mph 17.3 mph N/A   Drizzle